Time,TemperatureF,DewpointF,PressureIn,WindDirection,WindDirectionDegrees,WindSpeedMPH,WindSpeedGustMPH,Humidity,HourlyPrecipIn,Conditions,Clouds,dailyrainin,SoftwareType,DateUTC
2013-04-03 00:03:00,29.0,11.0,30.29,NE,45,0.0,0.0,46,0.00,,,0.00,,2013-04-03 04:03:00,
2013-04-03 00:12:00,29.0,11.0,30.29,NE,45,0.0,0.0,46,0.00,,,0.00,,2013-04-03 04:12:00,
2013-04-03 00:23:00,29.0,11.0,30.29,NE,45,0.0,0.0,46,0.00,,,0.00,,2013-04-03 04:23:00,
2013-04-03 00:33:00,29.0,11.0,30.29,NE,45,0.0,0.0,46,0.00,,,0.00,,2013-04-03 04:33:00,
2013-04-03 00:43:00,29.0,11.0,30.29,NE,45,0.0,0.0,46,0.00,,,0.00,,2013-04-03 04:43:00,
2013-04-03 00:53:00,28.0,10.0,30.29,NE,45,0.0,0.0,47,0.00,,,0.00,,2013-04-03 04:53:00,
2013-04-03 01:03:00,28.0,10.0,30.30,NE,45,0.0,0.0,47,0.00,,,0.00,,2013-04-03 05:03:00,
2013-04-03 01:12:00,28.0,10.0,30.30,NE,45,0.0,0.0,47,0.00,,,0.00,,2013-04-03 05:12:00,
2013-04-03 01:22:00,27.0,10.0,30.29,NE,45,0.0,0.0,48,0.00,,,0.00,,2013-04-03 05:22:00,
2013-04-03 01:32:00,27.0,10.0,30.30,NE,45,0.0,0.0,48,0.00,,,0.00,,2013-04-03 05:32:00,
2013-04-03 01:42:00,27.0,10.0,30.30,NE,45,0.0,0.0,48,0.00,,,0.00,,2013-04-03 05:42:00,
2013-04-03 01:53:00,27.0,10.0,30.30,NE,45,0.0,0.0,49,0.00,,,0.00,,2013-04-03 05:53:00,
2013-04-03 02:02:00,26.0,9.0,30.30,NE,45,0.0,0.0,49,0.00,,,0.00,,2013-04-03 06:02:00,
2013-04-03 02:12:00,26.0,9.0,30.30,NE,45,0.0,0.0,49,0.00,,,0.00,,2013-04-03 06:12:00,
2013-04-03 02:22:00,26.0,9.0,30.31,NE,45,0.0,0.0,49,0.00,,,0.00,,2013-04-03 06:22:00,
2013-04-03 02:32:00,26.0,9.0,30.31,NE,45,0.0,0.0,49,0.00,,,0.00,,2013-04-03 06:32:00,
2013-04-03 02:42:00,26.0,9.0,30.31,NE,45,0.0,0.0,49,0.00,,,0.00,,2013-04-03 06:42:00,
2013-04-03 02:52:00,26.0,10.0,30.31,NE,45,0.0,0.0,50,0.00,,,0.00,,2013-04-03 06:52:00,
2013-04-03 03:02:00,26.0,10.0,30.31,NE,45,0.0,0.0,50,0.00,,,0.00,,2013-04-03 07:02:00,
2013-04-03 03:12:00,26.0,10.0,30.31,NE,45,0.0,0.0,50,0.00,,,0.00,,2013-04-03 07:12:00,
2013-04-03 03:23:00,25.0,9.0,30.31,NE,45,0.0,0.0,51,0.00,,,0.00,,2013-04-03 07:23:00,
2013-04-03 03:32:00,25.0,9.0,30.31,NE,45,0.0,0.0,51,0.00,,,0.00,,2013-04-03 07:32:00,
2013-04-03 03:42:00,25.0,9.0,30.31,NE,45,0.0,0.0,51,0.00,,,0.00,,2013-04-03 07:42:00,
2013-04-03 03:53:00,24.0,9.0,30.31,NE,45,0.0,0.0,51,0.00,,,0.00,,2013-04-03 07:53:00,
2013-04-03 04:03:00,24.0,9.0,30.31,NE,45,0.0,0.0,52,0.00,,,0.00,,2013-04-03 08:03:00,
2013-04-03 04:12:00,24.0,9.0,30.31,NE,45,0.0,0.0,52,0.00,,,0.00,,2013-04-03 08:12:00,
2013-04-03 04:22:00,24.0,9.0,30.32,NE,45,0.0,0.0,52,0.00,,,0.00,,2013-04-03 08:22:00,
2013-04-03 04:32:00,24.0,9.0,30.32,NE,45,0.0,0.0,53,0.00,,,0.00,,2013-04-03 08:32:00,
2013-04-03 04:42:00,24.0,9.0,30.32,NE,45,0.0,0.0,53,0.00,,,0.00,,2013-04-03 08:42:00,
2013-04-03 04:52:00,23.0,9.0,30.32,NE,45,0.0,0.0,54,0.00,,,0.00,,2013-04-03 08:52:00,
2013-04-03 05:02:00,23.0,10.0,30.33,NE,45,0.0,0.0,56,0.00,,,0.00,,2013-04-03 09:02:00,
2013-04-03 05:12:00,23.0,10.0,30.33,NE,45,0.0,0.0,56,0.00,,,0.00,,2013-04-03 09:12:00,
2013-04-03 05:22:00,23.0,10.0,30.33,NE,45,0.0,0.0,56,0.00,,,0.00,,2013-04-03 09:22:00,
2013-04-03 05:33:00,23.0,10.0,30.33,NE,45,0.0,0.0,57,0.00,,,0.00,,2013-04-03 09:33:00,
2013-04-03 05:43:00,23.0,10.0,30.33,NE,45,0.0,0.0,57,0.00,,,0.00,,2013-04-03 09:43:00,
2013-04-03 05:53:00,22.0,9.0,30.34,NE,45,0.0,0.0,56,0.00,,,0.00,,2013-04-03 09:53:00,
2013-04-03 06:03:00,22.0,9.0,30.34,NE,45,0.0,0.0,57,0.00,,,0.00,,2013-04-03 10:03:00,
2013-04-03 06:12:00,22.0,9.0,30.34,NE,45,0.0,0.0,57,0.00,,,0.00,,2013-04-03 10:12:00,
2013-04-03 06:22:00,22.0,9.0,30.34,NE,45,0.0,0.0,57,0.00,,,0.00,,2013-04-03 10:22:00,
2013-04-03 06:33:00,22.0,10.0,30.34,NE,45,0.0,0.0,58,0.00,,,0.00,,2013-04-03 10:33:00,
2013-04-03 06:43:00,22.0,10.0,30.34,NE,45,0.0,0.0,58,0.00,,,0.00,,2013-04-03 10:43:00,
2013-04-03 06:52:00,22.0,10.0,30.35,NE,45,0.0,0.0,58,0.00,,,0.00,,2013-04-03 10:52:00,
2013-04-03 07:02:00,21.0,9.0,30.36,NE,45,0.0,0.0,60,0.00,,,0.00,,2013-04-03 11:02:00,
2013-04-03 07:12:00,21.0,9.0,30.36,NE,45,0.0,0.0,60,0.00,,,0.00,,2013-04-03 11:12:00,
2013-04-03 07:22:00,21.0,9.0,30.36,NE,45,0.0,0.0,60,0.00,,,0.00,,2013-04-03 11:22:00,
2013-04-03 07:32:00,21.0,9.0,30.36,NE,45,0.0,0.0,60,0.00,,,0.00,,2013-04-03 11:32:00,
2013-04-03 07:42:00,21.0,9.0,30.36,NE,45,0.0,0.0,60,0.00,,,0.00,,2013-04-03 11:42:00,
2013-04-03 07:52:00,21.0,9.0,30.36,NE,45,0.0,0.0,60,0.00,,,0.00,,2013-04-03 11:52:00,
2013-04-03 08:02:00,21.0,9.0,30.36,NE,45,0.0,0.0,60,0.00,,,0.00,,2013-04-03 12:02:00,
2013-04-03 08:13:00,21.0,9.0,30.36,NE,45,0.0,0.0,60,0.00,,,0.00,,2013-04-03 12:13:00,
2013-04-03 08:22:00,21.0,10.0,30.36,NE,45,0.0,0.0,61,0.00,,,0.00,,2013-04-03 12:22:00,
2013-04-03 08:33:00,21.0,10.0,30.37,NE,45,0.0,0.0,62,0.00,,,0.00,,2013-04-03 12:33:00,
2013-04-03 08:42:00,21.0,10.0,30.37,NE,45,0.0,0.0,62,0.00,,,0.00,,2013-04-03 12:42:00,
2013-04-03 08:52:00,23.0,13.0,30.37,NE,45,0.0,0.0,64,0.00,,,0.00,,2013-04-03 12:52:00,
2013-04-03 09:02:00,24.0,14.0,30.39,NE,45,0.0,0.0,64,0.00,,,0.00,,2013-04-03 13:02:00,
2013-04-03 09:12:00,24.0,14.0,30.39,NE,45,0.0,0.0,64,0.00,,,0.00,,2013-04-03 13:12:00,
2013-04-03 09:22:00,27.0,16.0,30.40,NE,45,0.0,0.0,64,0.00,,,0.00,,2013-04-03 13:22:00,
2013-04-03 09:32:00,29.0,18.0,30.40,NE,45,0.0,0.0,64,0.00,,,0.00,,2013-04-03 13:32:00,
2013-04-03 09:42:00,29.0,18.0,30.40,NE,45,0.0,0.0,64,0.00,,,0.00,,2013-04-03 13:42:00,
2013-04-03 09:52:00,35.0,23.0,30.42,North,0,0.0,0.0,62,0.00,,,0.00,,2013-04-03 13:52:00,
2013-04-03 10:02:00,38.0,25.0,30.42,WNW,292,0.0,0.0,60,0.00,,,0.00,,2013-04-03 14:02:00,
2013-04-03 10:12:00,38.0,25.0,30.42,WNW,292,0.0,0.0,60,0.00,,,0.00,,2013-04-03 14:12:00,
2013-04-03 10:22:00,44.0,28.0,30.43,WNW,292,2.0,2.0,53,0.00,,,0.00,,2013-04-03 14:22:00,
2013-04-03 10:32:00,45.0,27.0,30.43,WNW,292,0.0,2.0,50,0.00,,,0.00,,2013-04-03 14:32:00,
2013-04-03 10:42:00,45.0,27.0,30.43,WNW,292,0.0,2.0,50,0.00,,,0.00,,2013-04-03 14:42:00,
2013-04-03 10:52:00,45.0,27.0,30.43,NNW,337,1.0,3.0,49,0.00,,,0.00,,2013-04-03 14:52:00,
2013-04-03 11:02:00,44.0,26.0,30.43,NW,315,0.0,0.0,49,0.00,,,0.00,,2013-04-03 15:02:00,
2013-04-03 11:12:00,44.0,26.0,30.43,NW,315,0.0,0.0,49,0.00,,,0.00,,2013-04-03 15:12:00,
2013-04-03 11:23:00,43.0,25.0,30.44,WNW,292,0.0,0.0,48,0.00,,,0.00,,2013-04-03 15:23:00,
2013-04-03 11:33:00,42.0,23.0,30.44,South,180,0.0,0.0,47,0.00,,,0.00,,2013-04-03 15:33:00,
2013-04-03 11:43:00,42.0,23.0,30.44,South,180,0.0,0.0,47,0.00,,,0.00,,2013-04-03 15:43:00,
2013-04-03 11:53:00,40.0,21.0,30.43,WSW,247,0.0,0.0,47,0.00,,,0.00,,2013-04-03 15:53:00,
2013-04-03 12:03:00,39.0,20.0,30.44,West,270,6.0,6.0,47,0.00,,,0.00,,2013-04-03 16:03:00,
2013-04-03 12:13:00,39.0,20.0,30.44,West,270,6.0,6.0,47,0.00,,,0.00,,2013-04-03 16:13:00,
2013-04-03 12:24:00,38.0,19.0,30.44,NW,315,0.0,0.0,46,0.00,,,0.00,,2013-04-03 16:24:00,
2013-04-03 12:33:00,38.0,19.0,30.44,NNW,337,0.0,0.0,46,0.00,,,0.00,,2013-04-03 16:33:00,
2013-04-03 12:43:00,38.0,19.0,30.44,NNW,337,0.0,0.0,46,0.00,,,0.00,,2013-04-03 16:43:00,
2013-04-03 12:53:00,38.0,19.0,30.44,ENE,67,1.0,3.0,46,0.00,,,0.00,,2013-04-03 16:53:00,
2013-04-03 13:03:00,38.0,19.0,30.44,ENE,67,2.0,5.0,46,0.00,,,0.00,,2013-04-03 17:03:00,
2013-04-03 13:13:00,38.0,19.0,30.44,ENE,67,2.0,5.0,46,0.00,,,0.00,,2013-04-03 17:13:00,
2013-04-03 13:23:00,37.0,17.0,30.43,WNW,292,1.0,4.0,44,0.00,,,0.00,,2013-04-03 17:23:00,
2013-04-03 13:33:00,37.0,17.0,30.42,ENE,67,1.0,4.0,44,0.00,,,0.00,,2013-04-03 17:33:00,
2013-04-03 13:46:00,37.0,17.0,30.42,ENE,67,1.0,4.0,44,0.00,,,0.00,,2013-04-03 17:46:00,
2013-04-03 13:54:00,37.0,17.0,30.43,SE,135,1.0,2.0,44,0.00,,,0.00,,2013-04-03 17:54:00,
2013-04-03 14:02:00,37.0,17.0,30.42,NNW,337,6.0,6.0,44,0.00,,,0.00,,2013-04-03 18:02:00,
2013-04-03 14:13:00,37.0,17.0,30.42,NNW,337,6.0,6.0,44,0.00,,,0.00,,2013-04-03 18:13:00,
2013-04-03 14:23:00,37.0,17.0,30.42,ENE,67,0.0,3.0,44,0.00,,,0.00,,2013-04-03 18:23:00,
2013-04-03 14:33:00,37.0,17.0,30.41,ENE,67,0.0,4.0,44,0.00,,,0.00,,2013-04-03 18:33:00,
2013-04-03 14:43:00,37.0,17.0,30.41,ENE,67,0.0,4.0,44,0.00,,,0.00,,2013-04-03 18:43:00,
2013-04-03 14:52:00,38.0,18.0,30.40,ENE,67,5.0,5.0,43,0.00,,,0.00,,2013-04-03 18:52:00,
2013-04-03 15:03:00,38.0,18.0,30.40,NNW,337,1.0,5.0,43,0.00,,,0.00,,2013-04-03 19:03:00,
2013-04-03 15:12:00,38.0,18.0,30.40,NNW,337,1.0,5.0,43,0.00,,,0.00,,2013-04-03 19:12:00,
2013-04-03 15:22:00,39.0,17.0,30.39,NW,315,0.0,1.0,41,0.00,,,0.00,,2013-04-03 19:22:00,
2013-04-03 15:32:00,40.0,18.0,30.39,ESE,112,0.0,0.0,41,0.00,,,0.00,,2013-04-03 19:32:00,
2013-04-03 15:42:00,40.0,18.0,30.39,ESE,112,0.0,0.0,41,0.00,,,0.00,,2013-04-03 19:42:00,
2013-04-03 15:52:00,41.0,19.0,30.37,East,90,2.0,2.0,40,0.00,,,0.00,,2013-04-03 19:52:00,
2013-04-03 16:02:00,41.0,18.0,30.38,SE,135,0.0,3.0,39,0.00,,,0.00,,2013-04-03 20:02:00,
2013-04-03 16:12:00,41.0,18.0,30.38,SE,135,0.0,3.0,39,0.00,,,0.00,,2013-04-03 20:12:00,
2013-04-03 16:23:00,43.0,19.0,30.37,ENE,67,1.0,3.0,38,0.00,,,0.00,,2013-04-03 20:23:00,
2013-04-03 16:32:00,44.0,20.0,30.36,ENE,67,2.0,2.0,38,0.00,,,0.00,,2013-04-03 20:32:00,
2013-04-03 16:42:00,44.0,20.0,30.36,ENE,67,2.0,2.0,38,0.00,,,0.00,,2013-04-03 20:42:00,
2013-04-03 16:53:00,44.0,19.0,30.36,ENE,67,0.0,3.0,37,0.00,,,0.00,,2013-04-03 20:53:00,
2013-04-03 17:02:00,45.0,20.0,30.37,ENE,67,0.0,0.0,37,0.00,,,0.00,,2013-04-03 21:02:00,
2013-04-03 17:12:00,45.0,20.0,30.37,ENE,67,0.0,0.0,37,0.00,,,0.00,,2013-04-03 21:12:00,
2013-04-03 17:22:00,48.0,22.0,30.36,ENE,74,4.0,4.0,36,0.00,,,0.00,,2013-04-03 21:22:00,
2013-04-03 17:33:00,47.0,21.0,30.37,SSE,157,0.0,3.0,36,0.00,,,0.00,,2013-04-03 21:33:00,
2013-04-03 17:42:00,47.0,21.0,30.37,SSE,157,0.0,3.0,36,0.00,,,0.00,,2013-04-03 21:42:00,
2013-04-03 17:52:00,47.0,21.0,30.36,ENE,67,0.0,2.0,36,0.00,,,0.00,,2013-04-03 21:52:00,
2013-04-03 18:02:00,48.0,22.0,30.35,ENE,67,0.0,2.0,36,0.00,,,0.00,,2013-04-03 22:02:00,
2013-04-03 18:12:00,48.0,22.0,30.35,ENE,67,0.0,2.0,36,0.00,,,0.00,,2013-04-03 22:12:00,
2013-04-03 18:22:00,48.0,22.0,30.36,SE,135,1.0,3.0,35,0.00,,,0.00,,2013-04-03 22:22:00,
2013-04-03 18:33:00,47.0,21.0,30.37,SSE,157,0.0,2.0,35,0.00,,,0.00,,2013-04-03 22:33:00,
2013-04-03 18:42:00,47.0,21.0,30.37,SSE,157,0.0,2.0,35,0.00,,,0.00,,2013-04-03 22:42:00,
2013-04-03 18:52:00,48.0,22.0,30.36,ESE,105,2.0,3.0,35,0.00,,,0.00,,2013-04-03 22:52:00,
2013-04-03 19:02:00,48.0,21.0,30.36,SE,135,0.0,3.0,34,0.00,,,0.00,,2013-04-03 23:02:00,
2013-04-03 19:12:00,48.0,21.0,30.36,SE,135,0.0,3.0,34,0.00,,,0.00,,2013-04-03 23:12:00,
2013-04-03 19:22:00,47.0,20.0,30.36,SSE,157,1.0,7.0,34,0.00,,,0.00,,2013-04-03 23:22:00,
2013-04-03 19:32:00,47.0,20.0,30.36,East,90,0.0,6.0,34,0.00,,,0.00,,2013-04-03 23:32:00,
2013-04-03 19:42:00,47.0,20.0,30.36,East,90,0.0,6.0,34,0.00,,,0.00,,2013-04-03 23:42:00,
2013-04-03 19:54:00,46.0,19.0,30.36,ESE,112,2.0,2.0,34,0.00,,,0.00,,2013-04-03 23:54:00,
2013-04-03 20:03:00,46.0,19.0,30.36,SSE,157,0.0,0.0,34,0.00,,,0.00,,2013-04-04 00:03:00,
2013-04-03 20:12:00,46.0,19.0,30.36,SSE,157,0.0,0.0,34,0.00,,,0.00,,2013-04-04 00:12:00,
2013-04-03 20:22:00,45.0,19.0,30.36,SSE,157,0.0,0.0,35,0.00,,,0.00,,2013-04-04 00:22:00,
2013-04-03 20:32:00,44.0,18.0,30.36,SSE,157,0.0,0.0,35,0.00,,,0.00,,2013-04-04 00:32:00,
2013-04-03 20:43:00,44.0,18.0,30.36,SSE,157,0.0,0.0,35,0.00,,,0.00,,2013-04-04 00:43:00,
2013-04-03 20:52:00,42.0,18.0,30.35,SSE,157,0.0,0.0,37,0.00,,,0.00,,2013-04-04 00:52:00,
2013-04-03 21:02:00,41.0,17.0,30.35,SSE,157,0.0,0.0,37,0.00,,,0.00,,2013-04-04 01:02:00,
2013-04-03 21:12:00,41.0,17.0,30.35,SSE,157,0.0,0.0,37,0.00,,,0.00,,2013-04-04 01:12:00,
2013-04-03 21:22:00,40.0,17.0,30.35,SSE,157,0.0,0.0,39,0.00,,,0.00,,2013-04-04 01:22:00,
2013-04-03 21:32:00,39.0,16.0,30.35,SSE,157,0.0,0.0,39,0.00,,,0.00,,2013-04-04 01:32:00,
2013-04-03 21:43:00,39.0,16.0,30.35,SSE,157,0.0,0.0,39,0.00,,,0.00,,2013-04-04 01:43:00,
2013-04-03 21:52:00,37.0,16.0,30.35,SSE,157,0.0,0.0,41,0.00,,,0.00,,2013-04-04 01:52:00,
2013-04-03 22:02:00,36.0,15.0,30.35,SSE,157,0.0,0.0,42,0.00,,,0.00,,2013-04-04 02:02:00,
2013-04-03 22:12:00,36.0,15.0,30.35,SSE,157,0.0,0.0,42,0.00,,,0.00,,2013-04-04 02:12:00,
2013-04-03 22:22:00,35.0,15.0,30.35,SSE,157,0.0,0.0,43,0.00,,,0.00,,2013-04-04 02:22:00,
2013-04-03 22:32:00,35.0,15.0,30.35,SSE,157,0.0,0.0,43,0.00,,,0.00,,2013-04-04 02:32:00,
2013-04-03 22:42:00,35.0,15.0,30.35,SSE,157,0.0,0.0,43,0.00,,,0.00,,2013-04-04 02:42:00,
2013-04-03 22:53:00,35.0,15.0,30.35,SSE,157,0.0,0.0,43,0.00,,,0.00,,2013-04-04 02:53:00,
2013-04-03 23:02:00,34.0,14.0,30.35,SSE,157,0.0,0.0,44,0.00,,,0.00,,2013-04-04 03:02:00,
2013-04-03 23:12:00,34.0,14.0,30.35,SSE,157,0.0,0.0,44,0.00,,,0.00,,2013-04-04 03:12:00,
2013-04-03 23:22:00,34.0,14.0,30.34,SSE,157,0.0,0.0,44,0.00,,,0.00,,2013-04-04 03:22:00,
2013-04-03 23:33:00,33.0,13.0,30.34,SSE,157,0.0,0.0,44,0.00,,,0.00,,2013-04-04 03:33:00,
2013-04-03 23:45:00,33.0,13.0,30.34,SSE,157,0.0,0.0,44,0.00,,,0.00,,2013-04-04 03:45:00,
2013-04-03 23:53:00,33.0,14.0,30.34,SSE,157,0.0,0.0,45,0.00,,,0.00,,2013-04-04 03:53:00,